FJI397 NCRG-NTAA

Flight info

Callsign FJI397
Flight time N/A
Altitude 39000
Route ATSOR1Q DALUN G594 KRILL DCT 20W56 DCT SABUB DCT AROBA AROBA4K
Aircraft A359/H-VGDW/C

Departure

Time 2026-04-17 12:58
Airport Rarotonga International Airport (NCRG)

Arrival

Time N/A
Airport Fa'a'ā International Airport (NTAA)
Time Latitude Longitude Altitude Speed Heading
2026-04-17 12:31 -21.20063 -159.79806 22 ft 0 kts 282°
2026-04-17 12:53 -21.20064 -159.79812 25 ft 1 kts 268°
2026-04-17 12:53 -21.20064 -159.79813 25 ft 2 kts 268°
2026-04-17 12:54 -21.20085 -159.79863 26 ft 0 kts 227°
2026-04-17 12:55 -21.20113 -159.79852 25 ft 9 kts 149°
2026-04-17 12:55 -21.20197 -159.79824 24 ft 14 kts 172°
2026-04-17 12:55 -21.20248 -159.79795 28 ft 4 kts 104°
2026-04-17 12:55 -21.20257 -159.79756 27 ft 7 kts 100°
2026-04-17 12:56 -21.20257 -159.79695 26 ft 10 kts 88°
2026-04-17 12:56 -21.20256 -159.79616 26 ft 12 kts 90°
2026-04-17 12:56 -21.20244 -159.79536 25 ft 11 kts 74°
2026-04-17 12:56 -21.20250 -159.79478 26 ft 2 kts 144°
2026-04-17 12:57 -21.20257 -159.79480 29 ft 1 kts 187°
2026-04-17 12:57 -21.20260 -159.79497 27 ft 5 kts 272°
2026-04-17 12:57 -21.20260 -159.79581 26 ft 26 kts 271°
2026-04-17 12:57 -21.20256 -159.80072 25 ft 109 kts 270°
2026-04-17 12:58 -21.20254 -159.81173 97 ft 177 kts 274°
2026-04-17 12:58 -21.20249 -159.82478 1125 ft 171 kts 274°
2026-04-17 12:58 -21.20242 -159.83759 1868 ft 174 kts 275°
2026-04-17 12:58 -21.20219 -159.85081 2289 ft 180 kts 275°
2026-04-17 12:59 -21.20188 -159.86469 2683 ft 191 kts 275°
2026-04-17 12:59 -21.20055 -159.87946 2907 ft 210 kts 284°
2026-04-17 12:59 -21.19250 -159.89305 3044 ft 231 kts 322°
2026-04-17 12:59 -21.17680 -159.89841 3358 ft 251 kts 358°
2026-04-17 13:00 -21.16019 -159.89173 3846 ft 267 kts 35°
2026-04-17 13:00 -21.14986 -159.87504 4451 ft 278 kts 72°
2026-04-17 13:00 -21.14689 -159.85443 5015 ft 282 kts 80°
2026-04-17 13:00 -21.14354 -159.83450 5514 ft 285 kts 72°
2026-04-17 13:01 -21.13782 -159.81406 6013 ft 289 kts 69°
2026-04-17 13:01 -21.13137 -159.79372 6512 ft 293 kts 68°
2026-04-17 13:01 -21.12459 -159.77308 7065 ft 295 kts 68°
2026-04-17 13:01 -21.11765 -159.75223 7591 ft 297 kts 67°
2026-04-17 13:02 -21.11065 -159.73132 8109 ft 300 kts 67°
2026-04-17 13:02 -21.10353 -159.71016 8671 ft 302 kts 68°
2026-04-17 13:02 -21.09639 -159.68896 9200 ft 304 kts 68°
2026-04-17 13:02 -21.08921 -159.66768 9697 ft 307 kts 67°
2026-04-17 13:03 -21.08189 -159.64602 10115 ft 313 kts 68°
2026-04-17 13:03 -21.07432 -159.62369 10327 ft 326 kts 68°
2026-04-17 13:03 -21.06652 -159.60067 10522 ft 339 kts 68°
2026-04-17 13:03 -21.05834 -159.57651 10716 ft 351 kts 68°
2026-04-17 13:04 -21.04987 -159.55149 10899 ft 363 kts 68°
2026-04-17 13:04 -21.04116 -159.52578 11153 ft 371 kts 68°
2026-04-17 13:04 -21.03231 -159.49965 11499 ft 376 kts 68°
2026-04-17 13:04 -21.02339 -159.47331 11909 ft 378 kts 68°
2026-04-17 13:05 -21.01437 -159.44673 12302 ft 380 kts 68°
2026-04-17 13:05 -21.00530 -159.41999 12705 ft 383 kts 68°
2026-04-17 13:05 -20.99616 -159.39310 13129 ft 385 kts 68°
2026-04-17 13:05 -20.98697 -159.36607 13516 ft 388 kts 69°
2026-04-17 13:06 -20.97771 -159.33883 13859 ft 391 kts 68°
2026-04-17 13:06 -20.96845 -159.31139 14209 ft 393 kts 70°
2026-04-17 13:06 -20.96080 -159.28324 14566 ft 395 kts 74°
2026-04-17 13:06 -20.95380 -159.25470 14900 ft 398 kts 74°
2026-04-17 13:07 -20.94678 -159.22636 15262 ft 400 kts 74°
2026-04-17 13:07 -20.93951 -159.19762 15611 ft 402 kts 73°
2026-04-17 13:07 -20.93212 -159.16878 15877 ft 403 kts 73°
2026-04-17 13:07 -20.92459 -159.13976 15939 ft 405 kts 73°
2026-04-17 13:08 -20.91489 -159.11154 15938 ft 404 kts 59°
2026-04-17 13:08 -20.89799 -159.08787 15939 ft 399 kts 40°
2026-04-17 13:08 -20.87524 -159.07154 15938 ft 392 kts 21°
2026-04-17 13:08 -20.84921 -159.06416 15944 ft 385 kts
2026-04-17 13:09 -20.82289 -159.06640 15944 ft 378 kts 342°
2026-04-17 13:09 -20.79924 -159.07787 15939 ft 372 kts 323°
2026-04-17 13:09 -20.78097 -159.09711 15941 ft 369 kts 303°
2026-04-17 13:09 -20.76857 -159.12069 15943 ft 369 kts 295°
2026-04-17 13:10 -20.75940 -159.14628 15938 ft 369 kts 284°
2026-04-17 13:10 -20.75615 -159.17340 15939 ft 369 kts 269°
2026-04-17 13:10 -20.76076 -159.20030 15942 ft 371 kts 251°
2026-04-17 13:10 -20.77389 -159.22405 15939 ft 374 kts 230°
2026-04-17 13:11 -20.79372 -159.24216 15944 ft 377 kts 218°
2026-04-17 13:11 -20.81537 -159.25819 15942 ft 379 kts 217°
2026-04-17 13:11 -20.83719 -159.27403 15911 ft 376 kts 217°
2026-04-17 13:11 -20.85847 -159.28957 15712 ft 364 kts 217°
2026-04-17 13:12 -20.87876 -159.30449 15516 ft 353 kts 217°
2026-04-17 13:12 -20.91782 -159.33339 15137 ft 331 kts 218°
2026-04-17 13:12 -20.93644 -159.34720 14957 ft 320 kts 218°
2026-04-17 13:13 -20.95448 -159.36061 14719 ft 312 kts 218°
2026-04-17 13:13 -20.97216 -159.37378 14381 ft 309 kts 218°
2026-04-17 13:13 -20.98975 -159.38688 13999 ft 307 kts 218°
2026-04-17 13:13 -21.00722 -159.39992 13603 ft 305 kts 218°
2026-04-17 13:14 -21.02460 -159.41287 13170 ft 304 kts 218°
2026-04-17 13:14 -21.04212 -159.42548 12739 ft 304 kts 213°
2026-04-17 13:14 -21.06229 -159.43246 12294 ft 310 kts 189°
2026-04-17 13:14 -21.08387 -159.43035 11875 ft 314 kts 168°
2026-04-17 13:15 -21.10481 -159.42364 11405 ft 312 kts 165°
2026-04-17 13:15 -21.12533 -159.41629 10715 ft 310 kts 164°
2026-04-17 13:15 -21.14550 -159.40899 10021 ft 309 kts 164°
2026-04-17 13:15 -21.16583 -159.40162 9296 ft 307 kts 164°
2026-04-17 13:16 -21.18603 -159.39429 8570 ft 305 kts 164°
2026-04-17 13:16 -21.20567 -159.38588 7827 ft 305 kts 151°
2026-04-17 13:16 -21.22128 -159.37066 7144 ft 305 kts 125°
2026-04-17 13:16 -21.22960 -159.35012 6494 ft 300 kts 98°
2026-04-17 13:17 -21.22918 -159.32824 5819 ft 291 kts 72°
2026-04-17 13:17 -21.22032 -159.30944 5250 ft 279 kts 45°
2026-04-17 13:17 -21.20529 -159.29713 5038 ft 271 kts 22°
2026-04-17 13:17 -21.18798 -159.28936 4779 ft 268 kts 13°
2026-04-17 13:18 -21.16968 -159.28687 4121 ft 261 kts 351°
2026-04-17 13:18 -21.15323 -159.29250 3811 ft 240 kts 328°
2026-04-17 13:18 -21.14143 -159.30408 3520 ft 225 kts 306°
2026-04-17 13:18 -21.13524 -159.31914 3150 ft 219 kts 282°
2026-04-17 13:19 -21.13615 -159.33523 3003 ft 222 kts 263°
2026-04-17 13:19 -21.13951 -159.35153 2994 ft 225 kts 261°
2026-04-17 13:19 -21.14313 -159.36796 2980 ft 227 kts 261°
2026-04-17 13:19 -21.14671 -159.38443 2990 ft 227 kts 262°
2026-04-17 13:20 -21.15023 -159.40087 2994 ft 225 kts 262°
2026-04-17 13:20 -21.15360 -159.41666 2972 ft 208 kts 262°
2026-04-17 13:20 -21.15668 -159.43127 2977 ft 197 kts 262°
2026-04-17 13:20 -21.15966 -159.44553 2980 ft 197 kts 262°
2026-04-17 13:21 -21.16168 -159.45530 2985 ft 197 kts 263°
2026-04-17 13:21 -21.16467 -159.46968 3001 ft 198 kts 263°
2026-04-17 13:21 -21.16765 -159.48401 2985 ft 196 kts 263°
2026-04-17 13:21 -21.17060 -159.49820 2983 ft 195 kts 263°
2026-04-17 13:22 -21.17354 -159.51240 2985 ft 195 kts 263°
2026-04-17 13:22 -21.17649 -159.52665 2983 ft 197 kts 262°
2026-04-17 13:22 -21.17942 -159.54083 2987 ft 196 kts 262°
2026-04-17 13:22 -21.18240 -159.55510 2985 ft 196 kts 262°
2026-04-17 13:23 -21.18536 -159.56935 2981 ft 193 kts 262°
2026-04-17 13:23 -21.18824 -159.58311 3013 ft 186 kts 262°
2026-04-17 13:23 -21.19102 -159.59653 2990 ft 184 kts 262°
2026-04-17 13:23 -21.19379 -159.60996 2984 ft 185 kts 262°
2026-04-17 13:24 -21.19656 -159.62336 2986 ft 181 kts 262°
2026-04-17 13:24 -21.19922 -159.63600 2977 ft 169 kts 262°
2026-04-17 13:24 -21.20155 -159.64832 2991 ft 167 kts 268°
2026-04-17 13:24 -21.20206 -159.65646 2987 ft 164 kts 272°
2026-04-17 13:25 -21.20225 -159.66874 2989 ft 164 kts 273°
2026-04-17 13:25 -21.20247 -159.68092 2992 ft 163 kts 273°
2026-04-17 13:25 -21.20259 -159.69310 2998 ft 164 kts 274°
2026-04-17 13:25 -21.20256 -159.70527 2991 ft 163 kts 273°
2026-04-17 13:26 -21.20258 -159.71751 2998 ft 165 kts 273°
2026-04-17 13:26 -21.20262 -159.72982 2998 ft 165 kts 274°
2026-04-17 13:26 -21.20262 -159.74210 2996 ft 165 kts 274°
2026-04-17 13:26 -21.20262 -159.75443 2994 ft 166 kts 274°
2026-04-17 13:27 -21.20262 -159.76683 2990 ft 167 kts 273°
2026-04-17 13:27 -21.20263 -159.77928 2994 ft 167 kts 274°
2026-04-17 13:27 -21.20259 -159.79168 2989 ft 165 kts 274°
2026-04-17 13:27 -21.19923 -159.80329 2992 ft 166 kts 309°
2026-04-17 13:28 -21.18943 -159.80950 3005 ft 170 kts 345°
2026-04-17 13:28 -21.17749 -159.81052 2993 ft 174 kts 355°
2026-04-17 13:28 -21.16532 -159.81025 2991 ft 176 kts 357°
2026-04-17 13:28 -21.15347 -159.80638 3007 ft 186 kts 29°
2026-04-17 13:29 -21.14570 -159.79510 2987 ft 197 kts 68°
2026-04-17 13:29 -21.14403 -159.78044 2992 ft 200 kts 82°
2026-04-17 13:29 -21.14348 -159.76564 2990 ft 200 kts 85°
2026-04-17 13:29 -21.14290 -159.75076 2992 ft 200 kts 84°
2026-04-17 13:30 -21.14236 -159.73593 2906 ft 197 kts 83°
2026-04-17 13:30 -21.14193 -159.72121 2593 ft 198 kts 84°
2026-04-17 13:30 -21.14142 -159.70644 2276 ft 199 kts 84°
2026-04-17 13:30 -21.14096 -159.69163 2029 ft 199 kts 83°
2026-04-17 13:31 -21.14066 -159.67672 1996 ft 200 kts 84°
2026-04-17 13:31 -21.14215 -159.66222 1960 ft 193 kts 110°
2026-04-17 13:31 -21.14952 -159.65045 1986 ft 191 kts 133°
2026-04-17 13:31 -21.16108 -159.64389 1997 ft 187 kts 168°
2026-04-17 13:32 -21.17378 -159.64178 1971 ft 184 kts 186°
2026-04-17 13:32 -21.18499 -159.64661 1994 ft 170 kts 229°
2026-04-17 13:32 -21.19235 -159.65618 2006 ft 165 kts 244°
2026-04-17 13:32 -21.19867 -159.66620 1991 ft 163 kts 243°
2026-04-17 13:33 -21.20480 -159.67646 1996 ft 163 kts 244°
2026-04-17 13:33 -21.21077 -159.68678 1844 ft 165 kts 249°
2026-04-17 13:33 -21.21182 -159.68937 1731 ft 167 kts 257°
2026-04-17 13:33 -21.21306 -159.69409 1557 ft 164 kts 264°
2026-04-17 13:34 -21.21163 -159.70536 1336 ft 145 kts 300°
2026-04-17 13:34 -21.20606 -159.71396 1078 ft 138 kts 307°
2026-04-17 13:34 -21.20292 -159.72342 997 ft 140 kts 278°
2026-04-17 13:34 -21.20347 -159.73429 926 ft 148 kts 274°
2026-04-17 13:35 -21.20332 -159.74478 832 ft 136 kts 281°
2026-04-17 13:35 -21.20235 -159.75269 769 ft 135 kts 285°
2026-04-17 13:35 -21.20167 -159.76294 629 ft 144 kts 271°
2026-04-17 13:35 -21.20264 -159.77342 475 ft 144 kts 270°
2026-04-17 13:36 -21.20289 -159.78423 258 ft 143 kts 277°
2026-04-17 13:36 -21.20259 -159.79470 57 ft 140 kts 276°
2026-04-17 13:36 -21.20257 -159.80427 25 ft 91 kts 270°
2026-04-17 13:36 -21.20251 -159.80714 24 ft 0 kts 290°
2026-04-17 13:37 -21.20269 -159.80738 25 ft 5 kts 194°
2026-04-17 13:37 -21.20276 -159.80727 27 ft 1 kts 115°
2026-04-17 13:37 -21.20273 -159.80676 26 ft 13 kts 86°
2026-04-17 13:38 -21.20264 -159.80534 24 ft 25 kts 86°
2026-04-17 13:38 -21.20262 -159.80317 22 ft 33 kts 91°
2026-04-17 13:38 -21.20263 -159.80053 25 ft 36 kts 90°
2026-04-17 13:38 -21.20259 -159.79898 27 ft 7 kts 76°
2026-04-17 13:39 -21.20227 -159.79842 26 ft 12 kts 37°
2026-04-17 13:39 -21.20143 -159.79813 26 ft 11 kts 32°
2026-04-17 13:39 -21.20089 -159.79775 26 ft 0 kts 27°